Miscellaneous Local Product
Issued by NWS Hastings, NE

Home | Current Version | Previous Version | Graphics & Text | Print | Product List | Glossary On
Versions: 1 2 3 4 5 6 7 8 9 10 11 12 13 14 15 16 17 18 19 20 21 22 23 24 25 26 27 28 29 30 31 32 33 34 35 36 37 38 39 40 41 42 43 44 45 46 47 48 49 50
614
AXUS43 KGID 220602
MISGRI

GID CWA HOURLY WEATHER ROUNDUP
NATIONAL WEATHER SERVICE HASTINGS NE
100 AM CDT SAT JUL 22 2017

NOTE: "FAIR" INDICATES FEW OR NO CLOUDS BELOW 12,000 FEET WITH NO
SIGNIFICANT WEATHER AND/OR OBSTRUCTIONS TO VISIBILITY.

...SOUTH CENTRAL NEBRASKA...

CITY           SKY/WX    TMP DP  RH WIND       PRES   REMARKS
GRAND ISLAND   CLOUDY    76  72  87 N8        29.80R
HASTINGS       PTCLDY    80  75  84 S5        29.81S
KEARNEY        NOT AVBL
ORD            CLEAR     72  67  84 NW5       29.80S
YORK           CLOUDY    77  77 100 W5        29.77S
AURORA         CLOUDY    77  75  94 S7        29.78F
LEXINGTON      CLOUDY    80  66  63 SW6       29.84F
HOLDREGE       CLOUDY    78  63  59 SW5       29.83F
HEBRON         CLEAR     83  64  51 SW12      29.78S

...NEBRASKA PANHANDLE...

CITY           SKY/WX    TMP DP  RH WIND       PRES   REMARKS
CHADRON        PTCLDY    70  52  52 W7        29.98R
ALLIANCE       CLOUDY    70  56  61 W8        30.03R
SCOTTSBLUFF    CLOUDY    75  51  43 S8        30.05S
SIDNEY         CLOUDY    75  52  44 SW17      30.16R

...WESTERN AND NORTH CENTRAL NEBRASKA...

CITY           SKY/WX    TMP DP  RH WIND       PRES   REMARKS
VALENTINE      CLEAR     76  54  46 NW9       29.87R
AINSWORTH      CLEAR     76  70  83 W5        29.88R
ONEILL         CLEAR     74  70  88 CALM      29.81R
BROKEN BOW     CLEAR     69  65  86 NW6       29.86R
IMPERIAL       LGT RAIN  71  61  70 NW18G31   30.00R
NORTH PLATTE   PTCLDY    72  61  68 NW5       29.90R
MCCOOK         CLOUDY    85  59  41 CALM      29.87S

...EASTERN NEBRASKA...

CITY           SKY/WX    TMP DP  RH WIND       PRES   REMARKS
NORFOLK        CLOUDY    75  68  78 W5        29.76S
SO SIOUX CITY  CLOUDY    78  77  96 NE12      29.74F FOG
TEKAMAH        CLOUDY    81  79  94 CALM      29.71S HX  90
COLUMBUS       CLOUDY    79  72  79 W3        29.76R
ALBION         CLOUDY    72  70  93 CALM      29.79S
OMAHA EPPLEY   CLOUDY    90  68  48 S13       29.71F HX  94
OFFUTT AFB     PTCLDY    83  69  61 SW5       29.72R
MILLARD        MOCLDY    88  73  60 S5        29.73S HX  95
LINCOLN        CLEAR     84  67  56 S12       29.74R
NEBRASKA CITY  PTCLDY    84  71  63 SW15G23   29.74F
BEATRICE       CLEAR     85  68  56 S13G18    29.76S
FALLS CITY     NOT AVBL

...NORTHERN KANSAS...

CITY           SKY/WX    TMP DP  RH WIND       PRES   REMARKS
GOODLAND       CLOUDY    74  58  57 NW30G39   30.00R
HILL CITY      CLEAR     85  57  38 SW10      29.86R
NORTON         PTCLDY    81  52  36 SW6       29.86S
PHILLIPSBURG   CLEAR     82  55  39 SW9       29.82S
SMITH CENTER     N/A     75  59  57 S6        29.82S
HAYS           CLEAR     78  58  49 SW7       29.86S
RUSSELL        CLEAR     85  58  39 S13       29.84S
CONCORDIA      CLEAR     85  62  46 S20       29.79S
SALINA         PTCLDY    90  63  40 S16G25    29.82S HX  91
TOPEKA         CLEAR     87  73  62 S14G23    29.81S HX  94



USA.gov is the U.S. government's official web portal to all federal, state and local government web resources and services.